Location: Fort Wayne
(41.1310°N, 85.1290°W)
Time: 17:32:16
(UTC-04:00)

Courier 1B Rocket - All Passes

Search period start: 24 April 2014 00:00
Search period end: 04 May 2014 00:00
Orbit: 921 x 1202 km, 28.2° (Epoch: 21 April)

Date Brightness Start Highest point End Pass type
(mag) Time Alt. Az. Time Alt. Az. Time Alt. Az.
24 Apr - 06:39:09 10° SSW 06:43:57 19° SSE 06:48:32 10° ESE daylight
24 Apr - 08:30:58 10° SW 08:36:36 27° S 08:41:57 10° ESE daylight
24 Apr - 10:24:11 10° WSW 10:29:12 23° SSW 10:34:02 10° SE daylight
24 Apr - 12:19:55 10° SW 12:21:32 11° SSW 12:23:08 10° S daylight
25 Apr - 05:39:09 10° SSW 05:43:12 16° SSE 05:47:07 10° SE visible
25 Apr - 07:30:09 10° SW 07:35:51 26° S 07:41:15 10° ESE daylight
25 Apr - 09:23:02 10° WSW 09:28:32 26° S 09:33:45 10° SE daylight
25 Apr - 11:17:22 10° SW 11:20:58 15° SSW 11:24:30 10° SSE daylight
26 Apr - 04:39:57 10° S 04:42:27 12° SSE 04:44:54 10° SE visible
26 Apr - 06:29:29 10° SW 06:35:04 23° SSE 06:40:23 10° ESE daylight
26 Apr - 08:21:58 10° WSW 08:27:48 28° S 08:33:18 10° SE daylight
26 Apr - 10:15:42 10° WSW 10:20:22 20° SSW 10:24:51 10° SSE daylight
27 Apr - 05:29:02 10° SSW 05:34:16 20° SSE 05:39:18 10° ESE visible
27 Apr - 07:20:59 10° SW 07:27:01 28° S 07:32:42 10° ESE daylight
27 Apr - 09:14:20 10° WSW 09:19:42 24° SSW 09:24:48 10° SE daylight
27 Apr - 11:10:03 10° SW 11:12:03 11° SSW 11:14:01 10° S daylight
28 Apr - 04:28:57 10° SSW 04:33:28 17° SSE 04:37:52 10° ESE visible
28 Apr - 06:20:07 10° SW 06:26:12 27° S 06:31:58 10° ESE daylight
28 Apr - 08:13:06 10° WSW 08:18:58 27° S 08:24:30 10° SE daylight
28 Apr - 10:07:31 10° WSW 10:11:28 16° SSW 10:15:17 10° SSE daylight
29 Apr - 03:29:33 10° S 03:32:41 13° SSE 03:35:46 10° SE visible
29 Apr - 05:19:25 10° SW 05:25:21 25° SSE 05:31:03 10° ESE visible
29 Apr - 07:11:59 10° WSW 07:18:10 29° S 07:24:01 10° SE daylight
29 Apr - 09:05:47 10° WSW 09:10:49 21° SSW 09:15:36 10° SSE daylight
30 Apr - 04:18:57 10° SSW 04:24:30 22° SSE 04:29:54 10° ESE visible
30 Apr - 06:10:58 10° SW 06:17:19 29° S 06:23:22 10° ESE visible
30 Apr - 08:04:22 10° WSW 08:10:05 25° SSW 08:15:31 10° SE daylight
30 Apr - 10:00:00 10° SW 10:02:30 12° SSW 10:04:58 10° S daylight
01 May - 03:18:51 10° SSW 03:23:40 18° SSE 03:28:25 10° ESE visible
01 May - 05:10:05 10° SW 05:16:26 28° S 05:22:33 10° ESE visible
01 May - 07:03:06 10° WSW 07:09:17 28° S 07:15:11 10° SE daylight
01 May - 08:57:32 10° WSW 09:01:52 17° SSW 09:06:03 10° SSE daylight
02 May - 02:19:25 10° S 02:22:52 13° SSE 02:26:18 10° SE visible
02 May - 04:09:24 10° SW 04:15:33 26° SSE 04:21:33 10° ESE visible
02 May - 06:01:58 10° WSW 06:08:26 30° S 06:14:37 10° SE visible
02 May - 07:55:47 10° WSW 08:01:10 22° SSW 08:06:18 10° SSE daylight
03 May - 03:08:58 10° SSW 03:14:40 22° SSE 03:20:19 10° ESE visible
03 May - 05:00:58 10° SW 05:07:32 30° S 05:13:53 10° ESE visible
03 May - 06:54:21 10° WSW 07:00:23 26° SSW 07:06:09 10° SE daylight
03 May - 08:49:52 10° SW 08:52:52 13° SSW 08:55:49 10° S daylight
